Regional Weather Roundup
Issued by NWS Sioux Falls, SD

Home | Current Version | Previous Version | Graphics & Text | Print | Product List | Glossary Off
Versions: 1 2 3 4 5 6 7 8 9 10 11 12 13 14 15 16 17 18 19 20 21 22 23 24 25 26 27 28 29 30 31 32 33 34 35 36 37 38 39 40 41 42 43 44 45 46 47 48 49 50

000
ASUS43 KFSD 291602
RWRFSD

WEATHER ROUNDUP FOR SE SOUTH DAKOTA/SW MINNESOTA/NW IOWA
NATIONAL WEATHER SERVICE SIOUX FALLS SD
1100 AM CDT MON MAY 29 2017

NOTE: "FAIR" INDICATES FEW OR NO CLOUDS BELOW 12,000 FEET WITH NO
SIGNIFICANT WEATHER AND OR OBSTRUCTIONS TO VISIBILITY.


SDZ038>040-050-052>070-291700-
SOUTHEAST SOUTH DAKOTA

CITY           SKY/WX    TMP DP  RH WIND       PRES   REMARKS
BROOKINGS      CLOUDY    54  48  80 NW16G23   29.95R
CHAMBERLAIN    MOSUNNY   64  43  46 NW23G32   30.06R
HURON          CLOUDY    57  44  62 NW21G30   30.00R
MADISON        PTSUNNY   55  48  76 NW18G25   29.98R
MITCHELL       CLOUDY    62  43  49 NW25G31   30.02R
SIOUX FALLS    CLOUDY    59  47  64 NW18G30   29.97S
WINNER         FAIR      63  42  46 NW22G33   30.09S
YANKTON        MOSUNNY   64  43  46 NW23G31   30.02
$$

MNZ071-072-080-081-089-090-097-098-291700-
SOUTHWEST MINNESOTA

CITY           SKY/WX    TMP DP  RH WIND       PRES   REMARKS
FAIRMONT       CLOUDY    61  46  57 W16G25    29.89S
JACKSON        PTSUNNY   59  46  63 W18       29.92R
LUVERNE        MOSUNNY   61  43  51 NW17G24   29.96S
MARSHALL       CLOUDY    58  46  64 NW18      29.91R
MONTEVIDEO     PTSUNNY   55  52  88 N12G21    29.89R
PIPESTONE      PTSUNNY   55  45  67 NW13G18   29.95R
REDWOOD FALLS  LGT RAIN  55  48  77 W14       29.89R
TRACY          CLOUDY    59  47  64 NW14G22   29.92R
WINDOM         MOSUNNY   61  46  59 W14G22    29.91R
WORTHINGTON    CLOUDY    58  47  66 W21       29.94R
$$

IAZ001>003-012>014-020>022-031-032-NEZ013-014-SDZ071-291700-
NORTHWEST IOWA

CITY           SKY/WX    TMP DP  RH WIND       PRES   REMARKS
CHEROKEE       SUNNY     64  45  50 NW14G26   29.96S
DENISON        SUNNY     66  45  45 NW20G30   29.99S
ESTHERVILLE    MOSUNNY   62  46  55 W22G28    29.90S
LE MARS        SUNNY     64  43  45 NW18G26   29.99S
ORANGE CITY    SUNNY     63  46  55 NW23G31   29.97S
SHELDON        MOSUNNY   64  43  45 NW22G32   29.94S
SIOUX CITY     SUNNY     66  46  48 NW20G29   29.99S
SPENCER        MOSUNNY   64  46  52 NW18G29   29.93S
STORM LAKE     SUNNY     64  43  45 NW23G30   29.95F
$$

ABBREVIATIONS USED IN REMARKS
   TC - TEMPERATURE IN CELSIUS
  WCI - WIND CHILL INDEX
   HX - HEAT INDEX
  VSB - VISIBILITY




USA.gov is the U.S. government's official web portal to all federal, state and local government web resources and services.